When you browse on this site, cookies collect data to enhance your experience and personalize the content and advertising you see.
Visit our Privacy Policy to learn more. By continuing to use the site, you agree to this use of cookies and data.
  • In United Kingdom
  • List of Countries
  • For 7 days
  • Water Temperature
  • Satellite Maps
  • Weather Map
  • Weather Widgets
  • user-avatar
    Login

    Hourly Weather Irvadan

    Today, 23 March, Saturday

    Time Temperature Precipitation Wind Pressure Humidity
    00:00 +16°C° 0 mm 2 mps 726 mmHg 36%
    01:00 +16°C° 0 mm 3 mps 726 mmHg 37%
    02:00 +14°C° 0 mm 3 mps 726 mmHg 37%
    03:00 +14°C° 0 mm 3 mps 726 mmHg 38%
    04:00 +14°C° 0 mm 2 mps 726 mmHg 38%
    05:00 +14°C° 0 mm 3 mps 725 mmHg 36%
    06:00 +15°C° 0 mm 2 mps 725 mmHg 36%
    07:00 +15°C° 0 mm 2 mps 725 mmHg 35%
    08:00 +16°C° 0 mm 1 mps 725 mmHg 34%
    09:00 +18°C° 0 mm 1 mps 725 mmHg 31%
    10:00 +19°C° 0 mm 1 mps 725 mmHg 27%
    11:00 +21°C° 0 mm 1 mps 725 mmHg 24%
    12:00 +22°C° 0 mm 1 mps 725 mmHg 22%
    13:00 +23°C° 0 mm 1 mps 725 mmHg 21%
    14:00 +23°C° 0 mm 1 mps 725 mmHg 20%
    15:00 +23°C° 0 mm 2 mps 725 mmHg 20%
    16:00 +23°C° 0 mm 2 mps 725 mmHg 20%
    17:00 +22°C° 0 mm 3 mps 725 mmHg 20%
    18:00 +21°C° 0 mm 4 mps 726 mmHg 26%
    19:00 +19°C° 0 mm 5 mps 727 mmHg 31%
    20:00 +17°C° 0 mm 7 mps 728 mmHg 36%
    21:00 +16°C° 0.1 mm 6 mps 728 mmHg 39%
    22:00 +15°C° 0.1 mm 5 mps 729 mmHg 41%
    23:00 +15°C° 0.1 mm 4 mps 729 mmHg 44%

    Tomorrow, 24 March, Sunday

    Time Temperature Precipitation Wind Pressure Humidity
    00:00 +14°C° 0.1 mm 3 mps 729 mmHg 47%
    01:00 +13°C° 0.1 mm 3 mps 729 mmHg 50%
    02:00 +13°C° 0.1 mm 2 mps 729 mmHg 53%
    03:00 +13°C° 0 mm 2 mps 730 mmHg 57%
    04:00 +13°C° 0 mm 1 mps 730 mmHg 60%
    05:00 +12°C° 0 mm 1 mps 730 mmHg 64%
    06:00 +13°C° 0 mm 1 mps 730 mmHg 62%
    07:00 +13°C° 0 mm 1 mps 730 mmHg 61%
    08:00 +13°C° 0 mm 1 mps 730 mmHg 60%
    09:00 +14°C° 0 mm 1 mps 729 mmHg 54%
    10:00 +15°C° 0 mm 0 mps 729 mmHg 49%
    11:00 +16°C° 0 mm 0 mps 729 mmHg 43%
    12:00 +17°C° 0 mm 0 mps 728 mmHg 39%
    13:00 +20°C° 0 mm 1 mps 728 mmHg 36%
    14:00 +21°C° 0 mm 1 mps 728 mmHg 32%
    15:00 +21°C° 0 mm 1 mps 727 mmHg 31%
    16:00 +21°C° 0 mm 1 mps 727 mmHg 29%
    17:00 +21°C° 0 mm 1 mps 727 mmHg 28%
    18:00 +19°C° 0 mm 0 mps 728 mmHg 30%
    19:00 +18°C° 0 mm 0 mps 729 mmHg 31%
    20:00 +17°C° 0 mm 0 mps 729 mmHg 33%
    21:00 +19°C° 0 mm 1 mps 729 mmHg 34%
    22:00 +17°C° 0 mm 2 mps 729 mmHg 35%
    23:00 +16°C° 0 mm 3 mps 729 mmHg 36%

    Day after tomorrow, 25 March, Monday

    Time Temperature Precipitation Wind Pressure Humidity
    00:00 +16°C° 0 mm 3 mps 729 mmHg 36%
    01:00 +14°C° 0 mm 3 mps 729 mmHg 36%
    02:00 +14°C° 0 mm 3 mps 729 mmHg 36%
    03:00 +13°C° 0 mm 3 mps 729 mmHg 36%
    04:00 +13°C° 0 mm 3 mps 729 mmHg 36%
    05:00 +12°C° 0 mm 3 mps 729 mmHg 36%
    06:00 +13°C° 0 mm 3 mps 729 mmHg 34%
    07:00 +14°C° 0 mm 3 mps 729 mmHg 31%
    08:00 +14°C° 0 mm 3 mps 729 mmHg 29%
    09:00 +17°C° 0 mm 3 mps 728 mmHg 27%
    10:00 +18°C° 0 mm 2 mps 728 mmHg 24%
    11:00 +20°C° 0 mm 2 mps 728 mmHg 21%
    12:00 +21°C° 0 mm 2 mps 728 mmHg 20%
    13:00 +23°C° 0 mm 1 mps 727 mmHg 20%
    14:00 +24°C° 0 mm 1 mps 727 mmHg 19%
    15:00 +24°C° 0 mm 1 mps 727 mmHg 19%
    16:00 +24°C° 0 mm 1 mps 727 mmHg 19%
    17:00 +22°C° 0 mm 0 mps 728 mmHg 19%
    18:00 +23°C° 0 mm 1 mps 728 mmHg 21%
    19:00 +22°C° 0 mm 1 mps 729 mmHg 23%
    20:00 +20°C° 0 mm 2 mps 729 mmHg 26%
    21:00 +19°C° 0 mm 3 mps 730 mmHg 28%
    22:00 +18°C° 0 mm 3 mps 730 mmHg 31%
    23:00 +17°C° 0 mm 4 mps 730 mmHg 33%

    26 March, Tuesday

    Time Temperature Precipitation Wind Pressure Humidity
    00:00 +17°C° 0 mm 4 mps 729 mmHg 34%
    01:00 +15°C° 0 mm 4 mps 729 mmHg 34%
    02:00 +15°C° 0 mm 4 mps 729 mmHg 34%
    03:00 +14°C° 0 mm 4 mps 729 mmHg 34%
    04:00 +14°C° 0 mm 4 mps 729 mmHg 33%
    05:00 +14°C° 0 mm 4 mps 729 mmHg 33%
    06:00 +14°C° 0 mm 4 mps 729 mmHg 31%
    07:00 +15°C° 0 mm 4 mps 729 mmHg 29%
    08:00 +17°C° 0 mm 4 mps 729 mmHg 27%
    09:00 +19°C° 0 mm 4 mps 728 mmHg 23%
    10:00 +21°C° 0 mm 4 mps 728 mmHg 20%
    11:00 +23°C° 0 mm 4 mps 727 mmHg 16%
    12:00 +25°C° 0 mm 4 mps 726 mmHg 14%
    13:00 +26°C° 0 mm 4 mps 726 mmHg 12%
    14:00 +27°C° 0 mm 4 mps 725 mmHg 10%
    15:00 +27°C° 0 mm 3 mps 725 mmHg 10%
    16:00 +27°C° 0 mm 3 mps 725 mmHg 10%
    17:00 +27°C° 0 mm 2 mps 725 mmHg 11%
    18:00 +26°C° 0 mm 3 mps 725 mmHg 13%
    19:00 +24°C° 0 mm 3 mps 725 mmHg 16%
    20:00 +22°C° 0 mm 3 mps 726 mmHg 19%
    21:00 +21°C° 0 mm 3 mps 726 mmHg 21%
    22:00 +21°C° 0 mm 3 mps 726 mmHg 22%
    23:00 +20°C° 0 mm 3 mps 726 mmHg 24%

    27 March, Wednesday

    Time Temperature Precipitation Wind Pressure Humidity
    00:00 +20°C° 0 mm 2 mps 725 mmHg 24%
    01:00 +19°C° 0 mm 2 mps 725 mmHg 25%
    02:00 +18°C° 0 mm 2 mps 725 mmHg 26%
    03:00 +18°C° 0 mm 2 mps 725 mmHg 26%
    04:00 +18°C° 0 mm 2 mps 726 mmHg 26%
    05:00 +18°C° 0 mm 2 mps 726 mmHg 27%
    06:00 +19°C° 0 mm 1 mps 726 mmHg 28%
    07:00 +19°C° 0 mm 1 mps 726 mmHg 29%
    08:00 +20°C° 0 mm 1 mps 726 mmHg 30%
    09:00 +20°C° 0 mm 2 mps 725 mmHg 26%
    10:00 +21°C° 0 mm 2 mps 725 mmHg 23%
    11:00 +23°C° 0 mm 2 mps 724 mmHg 20%
    12:00 +24°C° 0 mm 2 mps 724 mmHg 19%
    13:00 +24°C° 0 mm 2 mps 724 mmHg 19%
    14:00 +24°C° 0 mm 2 mps 724 mmHg 18%
    15:00 +24°C° 0 mm 2 mps 724 mmHg 20%
    16:00 +24°C° 0 mm 1 mps 725 mmHg 22%
    17:00 +24°C° 0 mm 1 mps 725 mmHg 24%
    18:00 +23°C° 0 mm 1 mps 725 mmHg 26%
    19:00 +22°C° 0 mm 1 mps 725 mmHg 27%
    20:00 +21°C° 0 mm 1 mps 725 mmHg 29%
    21:00 +19°C° 0 mm 2 mps 725 mmHg 31%
    22:00 +19°C° 0 mm 2 mps 725 mmHg 33%
    23:00 +18°C° 0 mm 3 mps 725 mmHg 35%

    28 March, Thursday

    Time Temperature Precipitation Wind Pressure Humidity
    00:00 +18°C° 0 mm 3 mps 724 mmHg 36%
    01:00 +17°C° 0 mm 2 mps 724 mmHg 37%
    02:00 +17°C° 0 mm 2 mps 723 mmHg 38%
    03:00 +17°C° 0 mm 2 mps 723 mmHg 38%
    04:00 +17°C° 0 mm 2 mps 723 mmHg 38%
    05:00 +18°C° 0 mm 1 mps 723 mmHg 38%
    06:00 +18°C° 0 mm 2 mps 723 mmHg 37%
    07:00 +18°C° 0 mm 3 mps 723 mmHg 36%
    08:00 +19°C° 0 mm 3 mps 724 mmHg 35%
    09:00 +18°C° 0.2 mm 4 mps 724 mmHg 43%
    10:00 +18°C° 0.2 mm 4 mps 725 mmHg 50%
    11:00 +16°C° 0.2 mm 5 mps 725 mmHg 57%
    12:00 +18°C° 0.1 mm 4 mps 726 mmHg 56%
    13:00 +18°C° 0.1 mm 4 mps 726 mmHg 55%
    14:00 +19°C° 0.1 mm 4 mps 726 mmHg 54%
    15:00 +19°C° 0 mm 4 mps 726 mmHg 53%
    16:00 +19°C° 0 mm 4 mps 726 mmHg 52%
    17:00 +19°C° 0 mm 5 mps 726 mmHg 51%
    18:00 +19°C° 0 mm 4 mps 726 mmHg 51%
    19:00 +18°C° 0 mm 4 mps 726 mmHg 52%
    20:00 +18°C° 0 mm 3 mps 726 mmHg 52%
    21:00 +18°C° 0 mm 3 mps 726 mmHg 52%
    22:00 +17°C° 0 mm 3 mps 726 mmHg 53%
    23:00 +17°C° 0 mm 3 mps 726 mmHg 53%
    Show more